sat.trackr.live / text

‹ back to catalog

STARLINK-30378

NORAD 57787 · 2023-134S

PAYLOAD ACTIVE UNKNOWN

§ Identity

Operator
Country
US
Launch date
2023-09-04
Launch site
AFETR
Launch vehicle
Mass (kg)
RCS (m²)

Purposes: comms

External: N2YO · Heavens-Above · Gunter

§ Orbital elements

Epoch: 2026-05-24T23:42:04.180032Z

Period
94.27 min
Inclination
43.0025°
Eccentricity
0.0001137
Mean motion
15.27578795 rev/d
Perigee alt
482.3 km
Apogee alt
483.8 km
Semi-major
6,861.2 km
B*
2.4200e-5
RAAN
123.7549°
Arg perigee
281.4745°
Mean anomaly
78.5979°
Rev number
15,117

§ Raw data

STARLINK-303781 57787U 23134S   26144.98754838  .00000404  00000+0  24200-4 0  99952 57787  43.0025 123.7549 0001137 281.4745  78.5979 15.27578795151170

JSON: /api/v1/satellites/57787 · /tle

For live sub-satellite position, see the globe view (requires WebGL).

§ Visibility from observer

Set your observer location to see the next 7 days of passes ≥ 10°. The values pass through the URL so the page stays shareable.

No JS? Fill the form by hand. The geolocation button needs JavaScript.